FW0336 Weather Reports


time (UTC)temp
C
wind
direction
speed
KPH
gust
KPH
rain 1hr
cm
rain 24hr
cm
rain mn
cm
humidity
%
barometer
mb
20260504100252 0 221 0.0 3.2 0.00 0.00 0.00 92 1012.1
20260504081639 1 239 0.0 6.4 0.00 0.00 0.00 90 1012.3
20260504081139 1 30 3.2 6.4 0.00 0.00 0.00 90 1012.3
20260504080638 1 156 0.0 3.2 0.00 0.00 0.00 90 1012.4
20260504080137 1 155 0.0 4.8 0.00 0.00 0.00 90 1012.4
20260504070344 2 0 1.6 1.6 0.00 0.00 0.00 89 1012.4
20260504060128 2 0 0.0 0.0 0.00 0.00 0.00 86 1012.3
20260504050613 3 0 0.0 1.6 0.00 0.00 0.00 84 1012.4
20260504050116 3 0 0.0 0.0 0.00 0.00 0.00 83 1012.6
20260504045613 3 0 0.0 0.0 0.00 0.00 0.00 82 1012.5
20260504045117 3 0 0.0 0.0 0.00 0.00 0.00 82 1012.5
20260504044610 3 0 0.0 0.0 0.00 0.00 0.00 82 1012.5
20260504044110 3 0 0.0 0.0 0.00 0.00 0.00 82 1012.5
20260504043608 3 0 0.0 0.0 0.00 0.00 0.00 81 1012.4
20260504043112 3 0 0.0 0.0 0.00 0.00 0.00 81 1012.5
20260504042831 3 0 0.0 3.2 0.00 0.00 0.00 81 1012.4
20260504042340 3 0 0.0 3.2 0.00 0.00 0.00 82 1012.4
20260504041602 3 0 0.0 3.2 0.00 0.00 0.00 82 1012.4
20260504041101 3 0 0.0 0.0 0.00 0.00 0.00 81 1012.5
20260504040819 3 0 0.0 0.0 0.00 0.00 0.00 80 1012.5
20260504040057 4 0 0.0 0.0 0.00 0.00 0.00 79 1012.4
20260504035558 4 0 0.0 0.0 0.00 0.00 0.00 78 1012.4
20260504035054 5 0 0.0 0.0 0.00 0.00 0.00 75 1012.3
20260504034554 5 0 0.0 0.0 0.00 0.00 0.00 76 1012.2
20260504034051 5 0 0.0 1.6 0.00 0.00 0.00 75 1012.2
20260504033552 5 0 0.0 1.6 0.00 0.00 0.00 72 1012.0
20260504033320 5 0 0.0 0.0 0.00 0.00 0.00 73 1012.1
20260504032552 5 0 0.0 0.0 0.00 0.00 0.00 75 1012.0
20260504032315 5 0 0.0 0.0 0.00 0.00 0.00 75 1011.9
20260504031812 5 0 0.0 0.0 0.00 0.00 0.00 72 1011.9
20260504031053 5 0 0.0 0.0 0.00 0.00 0.00 72 1011.8
20260504030552 5 0 0.0 0.0 0.00 0.00 0.00 74 1011.9
20260504030052 6 0 0.0 0.0 0.00 0.00 0.00 73 1011.9
20260504025822 5 0 0.0 0.0 0.00 0.00 0.00 71 1011.9
20260504025322 5 0 0.0 0.0 0.00 0.00 0.00 73 1011.9
20260504024818 5 0 0.0 0.0 0.00 0.00 0.00 74 1011.8
20260504024049 6 0 0.0 0.0 0.00 0.00 0.00 71 1011.9
20260504023547 6 0 0.0 0.0 0.00 0.00 0.00 68 1011.8
20260504023046 7 0 0.0 1.6 0.00 0.00 0.00 64 1011.9
20260504022548 6 0 0.0 1.6 0.00 0.00 0.00 65 1012.0
20260504022046 6 0 0.0 0.0 0.00 0.00 0.00 69 1011.9
20260504021549 6 0 0.0 0.0 0.00 0.00 0.00 69 1012.1
20260504021042 7 0 0.0 0.0 0.00 0.00 0.00 66 1012.0
20260504020538 7 0 0.0 0.0 0.00 0.00 0.00 66 1011.9
20260504020037 7 0 0.0 0.0 0.00 0.00 0.00 68 1011.9
20260504015531 7 0 0.0 0.0 0.00 0.00 0.00 66 1011.9
20260504015033 7 0 0.0 0.0 0.00 0.00 0.00 65 1011.9
20260504014528 8 0 0.0 0.0 0.00 0.00 0.00 62 1011.9
20260504014519 8 0 0.0 1.6 0.00 0.00 0.00 60 1011.9
20260504013524 8 0 0.0 1.6 0.00 0.00 0.00 59 1011.8
20260504013016 8 0 0.0 0.0 0.00 0.00 0.00 60 1011.8
20260504012741 8 0 0.0 0.0 0.00 0.00 0.00 60 1011.8
20260504012242 8 0 0.0 0.0 0.00 0.00 0.00 60 1011.5
20260504011521 8 0 0.0 0.0 0.00 0.00 0.00 59 1011.5
20260504011252 8 0 0.0 0.0 0.00 0.00 0.00 58 1011.7
20260504010517 9 0 0.0 0.0 0.00 0.00 0.00 57 1011.5
20260504010012 9 0 0.0 0.0 0.00 0.00 0.00 57 1011.5
20260504005512 9 0 0.0 0.0 0.00 0.00 0.00 56 1011.5
20260504005013 10 0 0.0 4.8 0.00 0.00 0.00 56 1011.3
20260504004511 10 0 0.0 4.8 0.00 0.00 0.00 54 1011.4
20260504004012 10 335 1.6 3.2 0.00 0.00 0.00 52 1011.3
20260504003512 10 289 0.0 0.0 0.00 0.00 0.00 52 1011.3
20260504003012 11 289 0.0 1.6 0.00 0.00 0.00 51 1011.2
20260504002516 11 289 0.0 3.2 0.00 0.00 0.00 48 1011.1
20260504002011 11 289 0.0 4.8 0.00 0.00 0.00 46 1011.1
20260504001508 11 275 1.6 4.8 0.00 0.00 0.00 46 1011.0
20260504001007 11 294 0.0 3.2 0.00 0.00 0.00 48 1011.0
20260504000507 12 294 0.0 4.8 0.00 0.00 0.00 47 1010.9
20260504000007 12 294 1.6 6.4 0.00 0.00 0.00 44 1010.8
20260503235507 12 312 0.0 9.7 0.00 0.00 0.00 42 1010.7
20260503235008 13 290 3.2 9.7 0.00 0.00 0.00 42 1010.8
20260503234730 13 259 4.8 8.0 0.00 0.00 0.00 41 1010.7
20260503234009 13 327 3.2 11.3 0.00 0.00 0.00 40 1010.7
20260503233730 13 304 4.8 11.3 0.00 0.00 0.00 40 1010.6
20260503233009 13 266 6.4 11.3 0.00 0.00 0.00 40 1010.5
20260503232509 13 259 4.8 11.3 0.00 0.00 0.00 40 1010.5
20260503232008 13 284 4.8 17.7 0.00 0.00 0.00 39 1010.5
20260503231507 14 271 8.0 17.7 0.00 0.00 0.00 38 1010.6
20260503231008 14 261 9.7 17.7 0.00 0.00 0.00 38 1010.4
20260503230506 14 231 8.0 20.9 0.00 0.00 0.00 37 1010.4
20260503230237 14 275 12.9 24.1 0.00 0.00 0.00 36 1010.4
20260503225513 15 259 12.9 24.1 0.00 0.00 0.00 36 1010.5
20260503225454 14 277 6.4 19.3 0.00 0.00 0.00 37 1010.4
20260503224500 14 323 8.0 19.3 0.00 0.00 0.00 37 1010.4
20260503223958 14 257 8.0 19.3 0.00 0.00 0.00 36 1010.5
20260503223458 15 284 6.4 19.3 0.00 0.00 0.00 36 1010.5
20260503222955 15 271 11.3 32.2 0.00 0.00 0.00 36 1010.6
20260503222452 15 252 11.3 32.2 0.00 0.00 0.00 35 1010.7
20260503221952 15 264 9.7 20.9 0.00 0.00 0.00 36 1010.6
20260503221453 15 252 3.2 17.7 0.00 0.00 0.00 36 1010.4
20260503220951 15 263 9.7 20.9 0.00 0.00 0.00 35 1010.4
20260503220716 15 279 9.7 24.1 0.00 0.00 0.00 35 1010.5
20260503220553 15 257 9.7 22.5 0.00 0.00 0.00 35 1010.4
20260503215454 15 254 12.9 24.1 0.00 0.00 0.00 35 1010.5
20260503214950 15 306 6.4 22.5 0.00 0.00 0.00 35 1010.5
20260503214449 15 271 14.5 22.5 0.00 0.00 0.00 35 1010.5
20260503213951 15 286 12.9 24.1 0.00 0.00 0.00 35 1010.5
20260503213727 15 290 12.9 24.1 0.00 0.00 0.00 36 1010.5
20260503213205 15 300 9.7 24.1 0.00 0.00 0.00 35 1010.3
20260503213048 15 225 9.7 24.1 0.00 0.00 0.00 36 1010.3
20260503212227 15 286 8.0 20.9 0.00 0.00 0.00 36 1010.3
20260503211446 15 271 12.9 22.5 0.00 0.00 0.00 36 1010.3
20260503210947 15 296 9.7 22.5 0.00 0.00 0.00 34 1010.4
20260503210719 15 270 14.5 22.5 0.00 0.00 0.00 35 1010.4
20260503205947 15 232 9.7 22.5 0.00 0.00 0.00 35 1010.2
20260503205448 15 271 12.9 22.5 0.00 0.00 0.00 34 1010.3
20260503204944 15 279 11.3 22.5 0.00 0.00 0.00 34 1010.3
20260503204443 15 256 9.7 19.3 0.00 0.00 0.00 35 1010.2
20260503203944 15 290 8.0 27.4 0.00 0.00 0.00 35 1010.2
20260503203443 15 225 12.9 27.4 0.00 0.00 0.00 36 1010.4
20260503202942 15 305 9.7 22.5 0.00 0.00 0.00 36 1010.3
20260503202441 15 304 8.0 20.9 0.00 0.00 0.00 35 1010.5
20260503201943 15 281 6.4 17.7 0.00 0.00 0.00 36 1010.5
20260503201702 14 348 8.0 19.3 0.00 0.00 0.00 35 1010.6
20260503200942 15 269 6.4 20.9 0.00 0.00 0.00 36 1010.7
20260503200441 15 296 12.9 30.6 0.00 0.00 0.00 35 1010.8
20260503195942 15 304 14.5 30.6 0.00 0.00 0.00 36 1010.6
20260503195444 15 17 4.8 20.9 0.00 0.00 0.00 35 1010.6
20260503195201 15 315 11.3 27.4 0.00 0.00 0.00 34 1010.5
20260503194439 14 247 16.1 27.4 0.00 0.00 0.00 36 1010.9
20260503193940 13 264 14.5 25.7 0.00 0.00 0.00 36 1010.8
20260503193439 14 255 8.0 30.6 0.00 0.00 0.00 36 1010.9
20260503193206 14 5 9.7 30.6 0.00 0.00 0.00 35 1011.0
20260503192440 15 286 12.9 25.7 0.00 0.00 0.00 36 1010.9
20260503192200 14 286 9.7 25.7 0.00 0.00 0.00 34 1011.0
20260503191433 14 267 3.2 19.3 0.00 0.00 0.00 35 1011.2
20260503190933 13 275 9.7 19.3 0.00 0.00 0.00 36 1011.2
20260503190434 13 273 6.4 27.4 0.00 0.00 0.00 36 1011.3
20260503185933 13 311 6.4 29.0 0.00 0.00 0.00 38 1011.4
20260503185432 13 256 14.5 29.0 0.00 0.00 0.00 36 1011.4
20260503184931 15 280 9.7 24.1 0.00 0.00 0.00 36 1011.4
20260503184425 15 284 3.2 32.2 0.00 0.00 0.00 36 1011.4
20260503183921 13 324 12.9 32.2 0.00 0.00 0.00 37 1011.4
20260503183423 14 252 8.0 20.9 0.00 0.00 0.00 35 1011.7
20260503182920 13 251 9.7 25.7 0.00 0.00 0.00 35 1011.7
20260503182638 13 269 9.7 25.7 0.00 0.00 0.00 36 1011.8
20260503182151 13 245 8.0 22.5 0.00 0.00 0.00 36 1011.8
20260503181413 13 329 9.7 32.2 0.00 0.00 0.00 35 1011.8
20260503180910 13 325 17.7 32.2 0.00 0.00 0.00 35 1011.8
20260503180635 13 270 8.0 24.1 0.00 0.00 0.00 38 1011.8
20260503175907 13 267 9.7 24.1 0.00 0.00 0.00 38 1011.8
20260503175406 13 324 12.9 25.7 0.00 0.00 0.00 39 1011.9
20260503175122 12 292 9.7 25.7 0.00 0.00 0.00 41 1011.8
20260503174620 12 249 9.7 29.0 0.00 0.00 0.00 38 1011.9
20260503173857 13 320 6.4 29.0 0.00 0.00 0.00 38 1012.0
20260503173356 13 232 14.5 25.7 0.00 0.00 0.00 38 1012.2
20260503172855 13 279 6.4 20.9 0.00 0.00 0.00 36 1012.0
20260503172356 12 252 9.7 20.9 0.00 0.00 0.00 39 1012.1
20260503171855 12 292 11.3 17.7 0.00 0.00 0.00 41 1012.2
20260503171355 12 267 8.0 17.7 0.00 0.00 0.00 39 1012.2
20260503170856 12 340 9.7 24.1 0.00 0.00 0.00 40 1012.4
20260503170355 12 248 9.7 24.1 0.00 0.00 0.00 39 1012.5
20260503150839 10 254 16.1 30.6 0.00 0.00 0.00 41 1013.0
20260503150336 10 245 4.8 14.5 0.00 0.00 0.00 44 1013.0
20260503131320 7 294 9.7 19.3 0.00 0.00 0.00 58 1013.6
20260503130821 6 338 8.0 16.1 0.00 0.00 0.00 59 1013.4
20260503130321 6 265 11.3 25.7 0.00 0.00 0.00 59 1013.5
20260503110756 3 277 3.2 11.3 0.00 0.00 0.00 69 1012.9
20260503110256 3 265 3.2 8.0 0.00 0.00 0.00 69 1012.7